Regional Weather Roundup
Issued by NWS

Home | Current Version | Previous Version | Text Only | Print | Product List | Glossary On
Versions: 1 2 3 4 5 6 7 8 9 10 11 12 13 14 15 16 17 18 19 20 21 22 23 24 25 26 27 28 29 30 31 32 33 34 35 36 37 38 39 40 41 42 43 44 45 46 47 48 49 50
000
ASUS43 KLSX 162307
RWRMO

WEATHER SUMMARY FOR MISSOURI
NATIONAL WEATHER SERVICE SPRINGFIELD MO
500 PM CST SAT DEC 16 2017

NOTE: "FAIR" INDICATES FEW OR NO CLOUDS BELOW 12,000 FEET WITH NO
       SIGNIFICANT WEATHER AND/OR OBSTRUCTIONS TO VISIBILITY.
       CURRENT SKY AND/OR WEATHER CONDITIONS ARE NOT AVAILABLE FOR
       CHILLICOTHE AND FARMINGTON.

MOZ001>031-035>038-043-044-053-054-170000-
...NORTHERN AND WESTERN MISSOURI...

CITY           SKY/WX    TMP DP  RH WIND       PRES   REMARKS
KANSAS CTY INT PTCLDY    50  27  40 S9        29.90R
KANSAS C DTWN  CLEAR     55  26  32 S10       29.91R
LEE`S SUMMIT   CLEAR     54  26  34 SW12      29.93R
ST JOSEPH      CLEAR     50  29  44 CALM      29.89R
CHILLICOTHE      N/A     52  27  38 S3        29.91R
KIRKSVILLE     CLEAR     50  30  46 S3        29.92R

$$
MOZ066>068-077>081-088>096-101>105-170000-
...SOUTHWEST MISSOURI...

CITY           SKY/WX    TMP DP  RH WIND       PRES   REMARKS
SPRINGFIELD    PTCLDY    52  25  35 S9        29.99R
JOPLIN         CLOUDY    53  25  33 S15       29.99R
BRANSON        MOCLDY    54  19  26 S8        30.04R

$$
MOZ032>034-039>042-045>050-055>058-069>072-170000-
...CENTRAL MISSOURI...

CITY           SKY/WX    TMP DP  RH WIND       PRES   REMARKS
COLUMBIA       CLEAR     50  24  36 SW10      29.95R
JEFFERSON CITY CLOUDY    59  24  26 S5        29.96R
ROLLA          CLOUDY    52  26  36 S9        29.99R
SEDALIA        CLEAR     56  27  32 SW12G20   29.96R
WHITEMAN AFB   PTCLDY    53  26  35 SW13      29.90R
WARRENSBURG    CLEAR     54  27  35 S13G18    29.94R
OSAGE BEACH    CLOUDY    54  24  31 SW5       29.99R

$$
MOZ051-052-059>065-170000-
...EAST CENTRAL MISSOURI...

CITY           SKY/WX    TMP DP  RH WIND       PRES   REMARKS
ST LOUIS INTL  CLOUDY    55  26  32 SW7       29.99R
SPIRIT OF STL  PTCLDY    56  26  31 S8        29.98R
ST CHARLES     CLEAR     51  24  34 S10       29.97R

$$
MOZ072>076-082>087-097>100-106>115-170000-
...SOUTH CENTRAL AND SOUTHEAST MISSOURI...

CITY           SKY/WX    TMP DP  RH WIND       PRES   REMARKS
CAPE GIRARDEAU CLOUDY    48  30  49 S12       30.10R
FARMINGTON     CLOUDY    49  29  46 S12       30.03R
POPLAR BLUFF   CLOUDY    48  30  49 S5        30.09S
WEST PLAINS    PTCLDY    51  25  36 S12G18    30.05R

$$


USA.gov is the U.S. government's official web portal to all federal, state and local government web resources and services.